User: anonymous   Login
Location: Culleoka
(33.1312°N, 96.4919°W)
Time: 00:28:27
(UTC+00:00)
Language:

ADEOS - Orbit

View from above orbital plane
View from above orbital plane
View from above satellite
View from above satellite

Ground track
Ground track

The orbit data is extracted from the following two-line orbital elements,

1 24277U 96046A   22146.53645898  .00000160  00000-0  80942-4 0  9994
2 24277  98.9336 148.8447 0002280  99.8680 260.2758 14.29537648343773
Epoch (UTC): 26 May 2022 12:52:30
Eccentricity: 0.0002280
inclination: 98.9336°
perigee height: 791 km
apogee height: 795 km
right ascension of ascending node: 148.8447°
argument of perigee: 99.8680°
revolutions per day: 14.29537648
mean anomaly at epoch: 260.2758°
orbit number at epoch: 34377

The dashed part of the orbit path shows where the satellite is in the earth's shadow,  

DLR